Location: Newark
(9.4667°S, 159.8167°E)
Time: 20:40:50
(UTC+00:00)

Vanguard 1 - Pass Details

Date: 18 November 2019
Orbit: 651 x 3832 km, 34.3° (Epoch: 14 December)

Event Time Altitude Azimuth Distance (km) Brightness Sun altitude
Rises 12:48:35 0° 254° (WSW) 5,476 14.0 -61.0°
Reaches altitude 10° 12:52:20 10° 244° (WSW) 4,895 13.7 -61.1°
Maximum altitude 13:05:38 33° 185° (S) 4,488 13.4 -61.3°
Drops below altitude 10° 13:24:48 10° 127° (SE) 6,923 14.5 -60.9°
Sets 13:31:41 0° 118° (ESE) 7,964 15.0 -60.6°
